owner,sensor,date,latitude,longitude,air_pressure(mBar),qcFlag 
TABS,ioos:station:wmo:42043:1,2003-07-21T13:09:00Z,28.9818,-94.9186,1015.88,11111222 
TABS,ioos:station:wmo:42043:1,2003-07-21T13:39:00Z,28.9818,-94.9186,1015.95,11111222 
TABS,ioos:station:wmo:42043:1,2003-07-21T14:09:00Z,28.9818,-94.9186,1016.14,11111222 
TABS,ioos:station:wmo:42043:1,2003-07-21T14:39:00Z,28.9818,-94.9186,1016.14,11111222 
TABS,ioos:station:wmo:42043:1,2003-07-21T15:09:00Z,28.9818,-94.9186,1016.14,11111222 
TABS,ioos:station:wmo:42043:1,2003-07-21T15:39:00Z,28.9818,-94.9186,1016.2,11111222 
TABS,ioos:station:wmo:42043:1,2003-07-21T16:09:00Z,28.9818,-94.9186,1016.46,11111222 
TABS,ioos:station:wmo:42043:1,2003-07-21T16:39:00Z,28.9818,-94.9186,1016.52,11111222 
TABS,ioos:station:wmo:42043:1,2003-07-21T17:09:00Z,28.9818,-94.9186,1016.58,11111222 
TABS,ioos:station:wmo:42043:1,2003-07-21T17:39:00Z,28.9818,-94.9186,1016.46,11111222 
TABS,ioos:station:wmo:42043:1,2003-07-21T18:09:00Z,28.9818,-94.9186,1016.46,11111222 
TABS,ioos:station:wmo:42043:1,2003-07-21T18:39:00Z,28.9818,-94.9186,1016.26,11111222 
TABS,ioos:station:wmo:42043:1,2003-07-21T19:09:00Z,28.9818,-94.9186,1016.01,11111222 
TABS,ioos:station:wmo:42043:1,2003-07-21T19:39:00Z,28.9818,-94.9186,1015.69,11111222 
TABS,ioos:station:wmo:42043:1,2003-07-21T20:09:00Z,28.9818,-94.9186,1015.44,11111222 
TABS,ioos:station:wmo:42043:1,2003-07-21T20:39:00Z,28.9818,-94.9186,1015.25,11111222 
TABS,ioos:station:wmo:42043:1,2003-07-21T21:09:00Z,28.9818,-94.9186,1014.93,11111222 
TABS,ioos:station:wmo:42043:1,2003-07-21T21:39:00Z,28.9818,-94.9186,1014.8,11111222 
TABS,ioos:station:wmo:42043:1,2003-07-21T22:09:00Z,28.9818,-94.9186,1014.68,11111222 
TABS,ioos:station:wmo:42043:1,2003-07-21T22:39:00Z,28.9818,-94.9186,1014.49,11111222 
TABS,ioos:station:wmo:42043:1,2003-07-21T23:09:00Z,28.9818,-94.9186,1014.3,11111222 
TABS,ioos:station:wmo:42043:1,2003-07-21T23:39:00Z,28.9818,-94.9186,1014.17,11111222 
TABS,ioos:station:wmo:42043:1,2003-07-22T00:09:00Z,28.9818,-94.9186,1014.11,11111222 
TABS,ioos:station:wmo:42043:1,2003-07-22T00:39:00Z,28.9818,-94.9186,1014.11,11111222 
TABS,ioos:station:wmo:42043:1,2003-07-22T01:09:00Z,28.9818,-94.9186,1014.23,11111222 
TABS,ioos:station:wmo:42043:1,2003-07-22T01:39:00Z,28.9818,-94.9186,1014.23,11111222 
TABS,ioos:station:wmo:42043:1,2003-07-22T02:09:00Z,28.9818,-94.9186,1014.3,11111222 
TABS,ioos:station:wmo:42043:1,2003-07-22T02:39:00Z,28.9818,-94.9186,1014.61,11111222 
TABS,ioos:station:wmo:42043:1,2003-07-22T03:09:00Z,28.9818,-94.9186,1014.87,11111222 
TABS,ioos:station:wmo:42043:1,2003-07-22T03:39:00Z,28.9818,-94.9186,1015.06,11111222 
TABS,ioos:station:wmo:42043:1,2003-07-22T04:09:00Z,28.9818,-94.9186,1015.12,11111222 
TABS,ioos:station:wmo:42043:1,2003-07-22T04:39:00Z,28.9818,-94.9186,1015.19,11111222 
TABS,ioos:station:wmo:42043:1,2003-07-22T05:09:00Z,28.9818,-94.9186,1015.12,11111222 
TABS,ioos:station:wmo:42043:1,2003-07-22T05:39:00Z,28.9818,-94.9186,1014.93,11111222 
TABS,ioos:station:wmo:42043:1,2003-07-22T06:09:00Z,28.9818,-94.9186,1014.87,11111222 
TABS,ioos:station:wmo:42043:1,2003-07-22T06:39:00Z,28.9818,-94.9186,1014.68,11111222 
TABS,ioos:station:wmo:42043:1,2003-07-22T07:09:00Z,28.9818,-94.9186,1014.36,11111222 
TABS,ioos:station:wmo:42043:1,2003-07-22T07:39:00Z,28.9818,-94.9186,1013.98,11111222 
TABS,ioos:station:wmo:42043:1,2003-07-22T08:09:00Z,28.9818,-94.9186,1013.73,11111222 
TABS,ioos:station:wmo:42043:1,2003-07-22T08:39:00Z,28.9818,-94.9186,1013.73,11111222 
TABS,ioos:station:wmo:42043:1,2003-07-22T09:09:00Z,28.9818,-94.9186,1013.85,11111222 
TABS,ioos:station:wmo:42043:1,2003-07-22T09:39:00Z,28.9818,-94.9186,1014.04,11111222 
TABS,ioos:station:wmo:42043:1,2003-07-22T10:09:00Z,28.9818,-94.9186,1013.98,11111222 
TABS,ioos:station:wmo:42043:1,2003-07-22T10:39:00Z,28.9818,-94.9186,1014.23,11111222 
TABS,ioos:station:wmo:42043:1,2003-07-22T11:09:00Z,28.9818,-94.9186,1014.68,11111222 
TABS,ioos:station:wmo:42043:1,2003-07-22T11:39:00Z,28.9818,-94.9186,1015.0,11111222 
TABS,ioos:station:wmo:42043:1,2003-07-22T12:09:00Z,28.9818,-94.9186,1015.12,11111222 
TABS,ioos:station:wmo:42043:1,2003-07-22T12:39:00Z,28.9818,-94.9186,1015.5,11111222 
TABS,ioos:station:wmo:42043:1,2003-07-22T13:09:00Z,28.9818,-94.9186,1015.88,11111222 
TABS,ioos:station:wmo:42043:1,2003-07-22T13:39:00Z,28.9818,-94.9186,1016.26,11111222 
TABS,ioos:station:wmo:42043:1,2003-07-22T14:09:00Z,28.9818,-94.9186,1016.52,11111222 
TABS,ioos:station:wmo:42043:1,2003-07-22T14:39:00Z,28.9818,-94.9186,1016.58,11111222 
TABS,ioos:station:wmo:42043:1,2003-07-22T15:09:00Z,28.9818,-94.9186,1016.46,11111222 
TABS,ioos:station:wmo:42043:1,2003-07-22T15:39:00Z,28.9818,-94.9186,1016.46,11111222 
TABS,ioos:station:wmo:42043:1,2003-07-22T16:09:00Z,28.9818,-94.9186,1016.46,11111222 
TABS,ioos:station:wmo:42043:1,2003-07-22T16:39:00Z,28.9818,-94.9186,1016.46,11111222 
TABS,ioos:station:wmo:42043:1,2003-07-22T17:09:00Z,28.9818,-94.9186,1016.33,11111222 
TABS,ioos:station:wmo:42043:1,2003-07-22T17:39:00Z,28.9818,-94.9186,1016.39,11111222 
TABS,ioos:station:wmo:42043:1,2003-07-22T18:09:00Z,28.9818,-94.9186,1015.95,11111222 
TABS,ioos:station:wmo:42043:1,2003-07-22T18:39:00Z,28.9818,-94.9186,1015.69,11111222 
TABS,ioos:station:wmo:42043:1,2003-07-22T19:09:00Z,28.9818,-94.9186,1015.63,11111222 
TABS,ioos:station:wmo:42043:1,2003-07-22T19:39:00Z,28.9818,-94.9186,1015.44,11111222 
TABS,ioos:station:wmo:42043:1,2003-07-22T20:09:00Z,28.9818,-94.9186,1015.25,11111222 
TABS,ioos:station:wmo:42043:1,2003-07-22T20:39:00Z,28.9818,-94.9186,1015.12,11111222 
TABS,ioos:station:wmo:42043:1,2003-07-22T21:09:00Z,28.9818,-94.9186,1014.93,11111222 
TABS,ioos:station:wmo:42043:1,2003-07-22T21:39:00Z,28.9818,-94.9186,1014.74,11111222 
TABS,ioos:station:wmo:42043:1,2003-07-22T22:09:00Z,28.9818,-94.9186,1014.49,11111222 
TABS,ioos:station:wmo:42043:1,2003-07-22T22:39:00Z,28.9818,-94.9186,1014.3,11111222 
TABS,ioos:station:wmo:42043:1,2003-07-22T23:09:00Z,28.9818,-94.9186,1013.98,11111222 
TABS,ioos:station:wmo:42043:1,2003-07-22T23:39:00Z,28.9818,-94.9186,1013.79,11111222 
TABS,ioos:station:wmo:42043:1,2003-07-23T00:09:00Z,28.9818,-94.9186,1013.66,11111222 
TABS,ioos:station:wmo:42043:1,2003-07-23T00:39:00Z,28.9818,-94.9186,1013.54,11111222 
TABS,ioos:station:wmo:42043:1,2003-07-23T01:09:00Z,28.9818,-94.9186,1013.66,11111222 
TABS,ioos:station:wmo:42043:1,2003-07-23T01:39:00Z,28.9818,-94.9186,1013.66,11111222 
TABS,ioos:station:wmo:42043:1,2003-07-23T02:09:00Z,28.9818,-94.9186,1014.11,11111222 
TABS,ioos:station:wmo:42043:1,2003-07-23T02:39:00Z,28.9818,-94.9186,1014.49,11111222 
TABS,ioos:station:wmo:42043:1,2003-07-23T03:09:00Z,28.9818,-94.9186,1014.8,11111222 
TABS,ioos:station:wmo:42043:1,2003-07-23T03:39:00Z,28.9818,-94.9186,1014.74,11111222 
TABS,ioos:station:wmo:42043:1,2003-07-23T04:09:00Z,28.9818,-94.9186,1014.55,11111222 
TABS,ioos:station:wmo:42043:1,2003-07-23T04:39:00Z,28.9818,-94.9186,1014.61,11111222 
TABS,ioos:station:wmo:42043:1,2003-07-23T05:09:00Z,28.9818,-94.9186,1014.3,11111222 
TABS,ioos:station:wmo:42043:1,2003-07-23T05:39:00Z,28.9818,-94.9186,1013.98,11111222 
TABS,ioos:station:wmo:42043:1,2003-07-23T06:09:00Z,28.9818,-94.9186,1013.79,11111222 
TABS,ioos:station:wmo:42043:1,2003-07-23T06:39:00Z,28.9818,-94.9186,1013.66,11111222 
TABS,ioos:station:wmo:42043:1,2003-07-23T07:09:00Z,28.9818,-94.9186,1014.11,11111222 
TABS,ioos:station:wmo:42043:1,2003-07-23T07:39:00Z,28.9818,-94.9186,1014.3,11111222 
TABS,ioos:station:wmo:42043:1,2003-07-23T08:09:00Z,28.9818,-94.9186,1014.36,11111222 
TABS,ioos:station:wmo:42043:1,2003-07-23T08:39:00Z,28.9818,-94.9186,1014.87,11111222 
TABS,ioos:station:wmo:42043:1,2003-07-23T09:09:00Z,28.9818,-94.9186,1014.93,11111222 
TABS,ioos:station:wmo:42043:1,2003-07-23T09:39:00Z,28.9818,-94.9186,1014.93,11111222 
TABS,ioos:station:wmo:42043:1,2003-07-23T10:09:00Z,28.9818,-94.9186,1014.55,11111222 
TABS,ioos:station:wmo:42043:1,2003-07-23T10:39:00Z,28.9818,-94.9186,1014.36,11111222 
TABS,ioos:station:wmo:42043:1,2003-07-23T11:09:00Z,28.9818,-94.9186,1014.8,11111222 
TABS,ioos:station:wmo:42043:1,2003-07-23T11:39:00Z,28.9818,-94.9186,1015.19,11111222 
TABS,ioos:station:wmo:42043:1,2003-07-23T12:09:00Z,28.9818,-94.9186,1015.06,11111222 
TABS,ioos:station:wmo:42043:1,2003-07-23T12:39:00Z,28.9818,-94.9186,1015.57,11111222 
TABS,ioos:station:wmo:42043:1,2003-07-23T13:09:00Z,28.9818,-94.9186,1016.33,11111222 
TABS,ioos:station:wmo:42043:1,2003-07-23T13:39:00Z,28.9818,-94.9186,1016.46,11111222 
TABS,ioos:station:wmo:42043:1,2003-07-23T14:09:00Z,28.9818,-94.9186,1016.65,11111222 
TABS,ioos:station:wmo:42043:1,2003-07-23T14:39:00Z,28.9818,-94.9186,1017.15,11111222 
TABS,ioos:station:wmo:42043:1,2003-07-23T15:09:00Z,28.9818,-94.9186,1017.53,11111222 
TABS,ioos:station:wmo:42043:1,2003-07-23T15:39:00Z,28.9818,-94.9186,1017.85,11111222 
TABS,ioos:station:wmo:42043:1,2003-07-23T16:09:00Z,28.9818,-94.9186,1017.79,11111222 
TABS,ioos:station:wmo:42043:1,2003-07-23T16:39:00Z,28.9818,-94.9186,1017.41,11111222 
TABS,ioos:station:wmo:42043:1,2003-07-23T17:09:00Z,28.9818,-94.9186,1017.22,11111222 
TABS,ioos:station:wmo:42043:1,2003-07-23T17:39:00Z,28.9818,-94.9186,1016.77,11111222 
TABS,ioos:station:wmo:42043:1,2003-07-23T18:09:00Z,28.9818,-94.9186,1016.84,11111222 
TABS,ioos:station:wmo:42043:1,2003-07-23T18:39:00Z,28.9818,-94.9186,1016.58,11111222 
TABS,ioos:station:wmo:42043:1,2003-07-23T19:09:00Z,28.9818,-94.9186,1016.01,11111222 
TABS,ioos:station:wmo:42043:1,2003-07-23T19:39:00Z,28.9818,-94.9186,1015.44,11111222 
TABS,ioos:station:wmo:42043:1,2003-07-23T20:09:00Z,28.9818,-94.9186,1014.23,11111222 
TABS,ioos:station:wmo:42043:1,2003-07-23T20:39:00Z,28.9818,-94.9186,1013.22,11111222 
TABS,ioos:station:wmo:42043:1,2003-07-23T21:09:00Z,28.9818,-94.9186,1013.28,11111222 
TABS,ioos:station:wmo:42043:1,2003-07-23T21:39:00Z,28.9818,-94.9186,1013.15,11111222 
TABS,ioos:station:wmo:42043:1,2003-07-23T22:09:00Z,28.9818,-94.9186,1012.9,11111222 
TABS,ioos:station:wmo:42043:1,2003-07-23T22:39:00Z,28.9818,-94.9186,1014.17,11111222 
TABS,ioos:station:wmo:42043:1,2003-07-23T23:09:00Z,28.9818,-94.9186,1014.74,11111222 
TABS,ioos:station:wmo:42043:1,2003-07-23T23:39:00Z,28.9818,-94.9186,1015.19,11111222 
TABS,ioos:station:wmo:42043:1,2003-07-24T00:09:00Z,28.9818,-94.9186,1015.06,11111222 
TABS,ioos:station:wmo:42043:1,2003-07-24T00:39:00Z,28.9818,-94.9186,1015.06,11111222 
TABS,ioos:station:wmo:42043:1,2003-07-24T01:09:00Z,28.9818,-94.9186,1015.0,11111222 
TABS,ioos:station:wmo:42043:1,2003-07-24T01:39:00Z,28.9818,-94.9186,1014.93,11111222 
TABS,ioos:station:wmo:42043:1,2003-07-24T02:09:00Z,28.9818,-94.9186,1014.87,11111222 
TABS,ioos:station:wmo:42043:1,2003-07-24T02:39:00Z,28.9818,-94.9186,1015.12,11111222 
TABS,ioos:station:wmo:42043:1,2003-07-24T03:09:00Z,28.9818,-94.9186,1015.19,11111222 
TABS,ioos:station:wmo:42043:1,2003-07-24T03:39:00Z,28.9818,-94.9186,1015.57,11111222 
TABS,ioos:station:wmo:42043:1,2003-07-24T04:09:00Z,28.9818,-94.9186,1015.5,11111222 
TABS,ioos:station:wmo:42043:1,2003-07-24T04:39:00Z,28.9818,-94.9186,1015.57,11111222 
TABS,ioos:station:wmo:42043:1,2003-07-24T05:09:00Z,28.9818,-94.9186,1015.31,11111222 
TABS,ioos:station:wmo:42043:1,2003-07-24T05:39:00Z,28.9818,-94.9186,1015.31,11111222 
TABS,ioos:station:wmo:42043:1,2003-07-24T06:09:00Z,28.9818,-94.9186,1015.25,11111222 
TABS,ioos:station:wmo:42043:1,2003-07-24T06:39:00Z,28.9818,-94.9186,1014.93,11111222 
TABS,ioos:station:wmo:42043:1,2003-07-24T07:09:00Z,28.9818,-94.9186,1014.93,11111222 
TABS,ioos:station:wmo:42043:1,2003-07-24T07:39:00Z,28.9818,-94.9186,1014.93,11111222 
TABS,ioos:station:wmo:42043:1,2003-07-24T08:09:00Z,28.9818,-94.9186,1014.8,11111222 
TABS,ioos:station:wmo:42043:1,2003-07-24T08:39:00Z,28.9818,-94.9186,1014.68,11111222 
TABS,ioos:station:wmo:42043:1,2003-07-24T09:09:00Z,28.9818,-94.9186,1014.8,11111222 
TABS,ioos:station:wmo:42043:1,2003-07-24T09:39:00Z,28.9818,-94.9186,1014.87,11111222 
TABS,ioos:station:wmo:42043:1,2003-07-24T10:09:00Z,28.9818,-94.9186,1014.87,11111222 
TABS,ioos:station:wmo:42043:1,2003-07-24T10:39:00Z,28.9818,-94.9186,1015.12,11111222 
TABS,ioos:station:wmo:42043:1,2003-07-24T11:09:00Z,28.9818,-94.9186,1015.25,11111222 
TABS,ioos:station:wmo:42043:1,2003-07-24T11:39:00Z,28.9818,-94.9186,1015.5,11111222 
TABS,ioos:station:wmo:42043:1,2003-07-24T12:09:00Z,28.9818,-94.9186,1015.95,11111222 
TABS,ioos:station:wmo:42043:1,2003-07-24T12:39:00Z,28.9818,-94.9186,1016.26,11111222 
TABS,ioos:station:wmo:42043:1,2003-07-24T13:09:00Z,28.9818,-94.9186,1016.46,11111222 
TABS,ioos:station:wmo:42043:1,2003-07-24T13:39:00Z,28.9818,-94.9186,1016.46,11111222 
TABS,ioos:station:wmo:42043:1,2003-07-24T14:09:00Z,28.9818,-94.9186,1016.77,11111222 
TABS,ioos:station:wmo:42043:1,2003-07-24T14:39:00Z,28.9818,-94.9186,1017.15,11111222 
TABS,ioos:station:wmo:42043:1,2003-07-24T15:09:00Z,28.9818,-94.9186,1017.34,11111222 
TABS,ioos:station:wmo:42043:1,2003-07-24T15:39:00Z,28.9818,-94.9186,1017.72,11111222 
TABS,ioos:station:wmo:42043:1,2003-07-24T16:09:00Z,28.9818,-94.9186,1017.92,11111222 
TABS,ioos:station:wmo:42043:1,2003-07-24T16:39:00Z,28.9818,-94.9186,1018.23,11111222 
TABS,ioos:station:wmo:42043:1,2003-07-24T17:09:00Z,28.9818,-94.9186,1018.17,11111222 
TABS,ioos:station:wmo:42043:1,2003-07-24T17:39:00Z,28.9818,-94.9186,1017.72,11111222 
TABS,ioos:station:wmo:42043:1,2003-07-24T18:09:00Z,28.9818,-94.9186,1017.15,11111222 
TABS,ioos:station:wmo:42043:1,2003-07-24T18:39:00Z,28.9818,-94.9186,1016.96,11111222 
TABS,ioos:station:wmo:42043:1,2003-07-24T19:09:00Z,28.9818,-94.9186,1016.96,11111222 
TABS,ioos:station:wmo:42043:1,2003-07-24T19:39:00Z,28.9818,-94.9186,1016.77,11111222 
TABS,ioos:station:wmo:42043:1,2003-07-24T20:09:00Z,28.9818,-94.9186,1016.39,11111222 
TABS,ioos:station:wmo:42043:1,2003-07-24T20:39:00Z,28.9818,-94.9186,1016.2,11111222 
TABS,ioos:station:wmo:42043:1,2003-07-24T21:09:00Z,28.9818,-94.9186,1015.82,11111222 
TABS,ioos:station:wmo:42043:1,2003-07-24T21:39:00Z,28.9818,-94.9186,1016.2,11111222 
TABS,ioos:station:wmo:42043:1,2003-07-24T22:09:00Z,28.9818,-94.9186,1016.33,11111222 
TABS,ioos:station:wmo:42043:1,2003-07-24T22:39:00Z,28.9818,-94.9186,1016.07,11111222 
TABS,ioos:station:wmo:42043:1,2003-07-24T23:09:00Z,28.9818,-94.9186,1015.44,11111222 
TABS,ioos:station:wmo:42043:1,2003-07-24T23:39:00Z,28.9818,-94.9186,1015.12,11111222 
TABS,ioos:station:wmo:42043:1,2003-07-25T00:09:00Z,28.9818,-94.9186,1015.25,11111222 
TABS,ioos:station:wmo:42043:1,2003-07-25T00:39:00Z,28.9818,-94.9186,1015.31,11111222 
TABS,ioos:station:wmo:42043:1,2003-07-25T01:09:00Z,28.9818,-94.9186,1015.38,11111222 
TABS,ioos:station:wmo:42043:1,2003-07-25T01:39:00Z,28.9818,-94.9186,1015.38,11111222 
TABS,ioos:station:wmo:42043:1,2003-07-25T02:09:00Z,28.9818,-94.9186,1015.25,11111222 
TABS,ioos:station:wmo:42043:1,2003-07-25T02:39:00Z,28.9818,-94.9186,1015.38,11111222 
TABS,ioos:station:wmo:42043:1,2003-07-25T03:09:00Z,28.9818,-94.9186,1015.5,11111222 
TABS,ioos:station:wmo:42043:1,2003-07-25T03:39:00Z,28.9818,-94.9186,1015.69,11111222 
TABS,ioos:station:wmo:42043:1,2003-07-25T04:09:00Z,28.9818,-94.9186,1015.69,11111222 
TABS,ioos:station:wmo:42043:1,2003-07-25T04:39:00Z,28.9818,-94.9186,1015.82,11111222 
TABS,ioos:station:wmo:42043:1,2003-07-25T05:09:00Z,28.9818,-94.9186,1015.88,11111222 
TABS,ioos:station:wmo:42043:1,2003-07-25T05:39:00Z,28.9818,-94.9186,1016.01,11111222 
TABS,ioos:station:wmo:42043:1,2003-07-25T06:09:00Z,28.9818,-94.9186,1015.82,11111222 
TABS,ioos:station:wmo:42043:1,2003-07-25T06:39:00Z,28.9818,-94.9186,1015.82,11111222 
TABS,ioos:station:wmo:42043:1,2003-07-25T07:09:00Z,28.9818,-94.9186,1015.69,11111222 
TABS,ioos:station:wmo:42043:1,2003-07-25T07:39:00Z,28.9818,-94.9186,1015.69,11111222 
TABS,ioos:station:wmo:42043:1,2003-07-25T08:09:00Z,28.9818,-94.9186,1015.69,11111222 
TABS,ioos:station:wmo:42043:1,2003-07-25T08:39:00Z,28.9818,-94.9186,1015.76,11111222 
TABS,ioos:station:wmo:42043:1,2003-07-25T09:09:00Z,28.9818,-94.9186,1015.82,11111222 
TABS,ioos:station:wmo:42043:1,2003-07-25T09:39:00Z,28.9818,-94.9186,1016.01,11111222 
TABS,ioos:station:wmo:42043:1,2003-07-25T10:09:00Z,28.9818,-94.9186,1015.82,11111222 
TABS,ioos:station:wmo:42043:1,2003-07-25T10:39:00Z,28.9818,-94.9186,1016.14,11111222 
TABS,ioos:station:wmo:42043:1,2003-07-25T11:09:00Z,28.9818,-94.9186,1016.14,11111222 
TABS,ioos:station:wmo:42043:1,2003-07-25T11:39:00Z,28.9818,-94.9186,1016.58,11111222 
TABS,ioos:station:wmo:42043:1,2003-07-25T12:09:00Z,28.9818,-94.9186,1016.71,11111222 
TABS,ioos:station:wmo:42043:1,2003-07-25T12:39:00Z,28.9818,-94.9186,1017.22,11111222 
TABS,ioos:station:wmo:42043:1,2003-07-25T13:09:00Z,28.9818,-94.9186,1017.66,11111222 
TABS,ioos:station:wmo:42043:1,2003-07-25T13:39:00Z,28.9818,-94.9186,1017.79,11111222 
TABS,ioos:station:wmo:42043:1,2003-07-25T14:09:00Z,28.9818,-94.9186,1018.49,11111222 
TABS,ioos:station:wmo:42043:1,2003-07-25T14:39:00Z,28.9818,-94.9186,1018.61,11111222 
TABS,ioos:station:wmo:42043:1,2003-07-25T15:09:00Z,28.9818,-94.9186,1018.68,11111222 
TABS,ioos:station:wmo:42043:1,2003-07-25T15:39:00Z,28.9818,-94.9186,1018.74,11111222 
TABS,ioos:station:wmo:42043:1,2003-07-25T16:09:00Z,28.9818,-94.9186,1018.93,11111222 
TABS,ioos:station:wmo:42043:1,2003-07-25T16:39:00Z,28.9818,-94.9186,1019.12,11111222 
TABS,ioos:station:wmo:42043:1,2003-07-25T17:09:00Z,28.9818,-94.9186,1019.5,11111222 
TABS,ioos:station:wmo:42043:1,2003-07-25T17:39:00Z,28.9818,-94.9186,1019.06,11111222 
TABS,ioos:station:wmo:42043:1,2003-07-25T18:09:00Z,28.9818,-94.9186,1019.37,11111222 
TABS,ioos:station:wmo:42043:1,2003-07-25T18:39:00Z,28.9818,-94.9186,1019.25,11111222 
TABS,ioos:station:wmo:42043:1,2003-07-25T19:09:00Z,28.9818,-94.9186,1018.93,11111222 
TABS,ioos:station:wmo:42043:1,2003-07-25T19:39:00Z,28.9818,-94.9186,1018.8,11111222 
TABS,ioos:station:wmo:42043:1,2003-07-25T20:09:00Z,28.9818,-94.9186,1018.55,11111222 
TABS,ioos:station:wmo:42043:1,2003-07-25T20:39:00Z,28.9818,-94.9186,1018.04,11111222 
TABS,ioos:station:wmo:42043:1,2003-07-25T21:09:00Z,28.9818,-94.9186,1017.34,11111222 
TABS,ioos:station:wmo:42043:1,2003-07-25T21:39:00Z,28.9818,-94.9186,1017.34,11111222 
TABS,ioos:station:wmo:42043:1,2003-07-25T22:09:00Z,28.9818,-94.9186,1017.47,11111222 
TABS,ioos:station:wmo:42043:1,2003-07-25T22:39:00Z,28.9818,-94.9186,1017.09,11111222 
TABS,ioos:station:wmo:42043:1,2003-07-25T23:09:00Z,28.9818,-94.9186,1016.65,11111222 
TABS,ioos:station:wmo:42043:1,2003-07-25T23:39:00Z,28.9818,-94.9186,1016.33,11111222 
TABS,ioos:station:wmo:42043:1,2003-07-26T00:09:00Z,28.9818,-94.9186,1016.65,11111222 
TABS,ioos:station:wmo:42043:1,2003-07-26T00:39:00Z,28.9818,-94.9186,1016.9,11111222 
TABS,ioos:station:wmo:42043:1,2003-07-26T01:09:00Z,28.9818,-94.9186,1016.84,11111222 
TABS,ioos:station:wmo:42043:1,2003-07-26T01:39:00Z,28.9818,-94.9186,1016.9,11111222 
TABS,ioos:station:wmo:42043:1,2003-07-26T02:09:00Z,28.9818,-94.9186,1016.9,11111222 
TABS,ioos:station:wmo:42043:1,2003-07-26T02:39:00Z,28.9818,-94.9186,1016.9,11111222 
TABS,ioos:station:wmo:42043:1,2003-07-26T03:09:00Z,28.9818,-94.9186,1017.22,11111222 
TABS,ioos:station:wmo:42043:1,2003-07-26T03:39:00Z,28.9818,-94.9186,1017.47,11111222 
TABS,ioos:station:wmo:42043:1,2003-07-26T04:09:00Z,28.9818,-94.9186,1017.85,11111222 
TABS,ioos:station:wmo:42043:1,2003-07-26T04:39:00Z,28.9818,-94.9186,1018.23,11111222 
TABS,ioos:station:wmo:42043:1,2003-07-26T05:09:00Z,28.9818,-94.9186,1018.36,11111222 
TABS,ioos:station:wmo:42043:1,2003-07-26T05:39:00Z,28.9818,-94.9186,1018.49,11111222 
TABS,ioos:station:wmo:42043:1,2003-07-26T06:09:00Z,28.9818,-94.9186,1018.42,11111222 
TABS,ioos:station:wmo:42043:1,2003-07-26T06:39:00Z,28.9818,-94.9186,1018.49,11111222 
TABS,ioos:station:wmo:42043:1,2003-07-26T07:09:00Z,28.9818,-94.9186,1018.61,11111222 
TABS,ioos:station:wmo:42043:1,2003-07-26T07:39:00Z,28.9818,-94.9186,1018.49,11111222 
TABS,ioos:station:wmo:42043:1,2003-07-26T08:09:00Z,28.9818,-94.9186,1018.42,11111222 
TABS,ioos:station:wmo:42043:1,2003-07-26T08:39:00Z,28.9818,-94.9186,1018.49,11111222 
TABS,ioos:station:wmo:42043:1,2003-07-26T09:09:00Z,28.9818,-94.9186,1018.49,11111222 
TABS,ioos:station:wmo:42043:1,2003-07-26T09:39:00Z,28.9818,-94.9186,1018.61,11111222 
TABS,ioos:station:wmo:42043:1,2003-07-26T10:09:00Z,28.9818,-94.9186,1018.74,11111222 
TABS,ioos:station:wmo:42043:1,2003-07-26T10:39:00Z,28.9818,-94.9186,1018.87,11111222 
TABS,ioos:station:wmo:42043:1,2003-07-26T11:09:00Z,28.9818,-94.9186,1019.06,11111222 
TABS,ioos:station:wmo:42043:1,2003-07-26T11:39:00Z,28.9818,-94.9186,1019.31,11111222 
TABS,ioos:station:wmo:42043:1,2003-07-26T12:09:00Z,28.9818,-94.9186,1019.31,11111222 
TABS,ioos:station:wmo:42043:1,2003-07-26T12:39:00Z,28.9818,-94.9186,1019.63,11111222 
TABS,ioos:station:wmo:42043:1,2003-07-26T13:09:00Z,28.9818,-94.9186,1019.95,11111222 
TABS,ioos:station:wmo:42043:1,2003-07-26T13:39:00Z,28.9818,-94.9186,1020.26,11111222 
TABS,ioos:station:wmo:42043:1,2003-07-26T14:09:00Z,28.9818,-94.9186,1020.58,11111222 
TABS,ioos:station:wmo:42043:1,2003-07-26T14:39:00Z,28.9818,-94.9186,1020.77,11111222 
TABS,ioos:station:wmo:42043:1,2003-07-26T15:09:00Z,28.9818,-94.9186,1020.83,11111222 
TABS,ioos:station:wmo:42043:1,2003-07-26T15:39:00Z,28.9818,-94.9186,1020.96,11111222 
TABS,ioos:station:wmo:42043:1,2003-07-26T16:09:00Z,28.9818,-94.9186,1021.15,11111222 
TABS,ioos:station:wmo:42043:1,2003-07-26T16:39:00Z,28.9818,-94.9186,1021.28,11111222 
TABS,ioos:station:wmo:42043:1,2003-07-26T17:09:00Z,28.9818,-94.9186,1021.15,11111222 
TABS,ioos:station:wmo:42043:1,2003-07-26T17:39:00Z,28.9818,-94.9186,1020.96,11111222 
TABS,ioos:station:wmo:42043:1,2003-07-26T18:09:00Z,28.9818,-94.9186,1020.83,11111222 
TABS,ioos:station:wmo:42043:1,2003-07-26T18:39:00Z,28.9818,-94.9186,1020.71,11111222 
TABS,ioos:station:wmo:42043:1,2003-07-26T19:09:00Z,28.9818,-94.9186,1020.64,11111222 
TABS,ioos:station:wmo:42043:1,2003-07-26T19:39:00Z,28.9818,-94.9186,1020.39,11111222 
TABS,ioos:station:wmo:42043:1,2003-07-26T20:09:00Z,28.9818,-94.9186,1020.45,11111222 
TABS,ioos:station:wmo:42043:1,2003-07-26T20:39:00Z,28.9818,-94.9186,1020.33,11111222 
TABS,ioos:station:wmo:42043:1,2003-07-26T21:09:00Z,28.9818,-94.9186,1019.63,11111222 
TABS,ioos:station:wmo:42043:1,2003-07-26T21:39:00Z,28.9818,-94.9186,1019.69,11111222 
TABS,ioos:station:wmo:42043:1,2003-07-26T22:09:00Z,28.9818,-94.9186,1019.63,11111222 
TABS,ioos:station:wmo:42043:1,2003-07-26T22:39:00Z,28.9818,-94.9186,1019.37,11111222 
TABS,ioos:station:wmo:42043:1,2003-07-26T23:09:00Z,28.9818,-94.9186,1019.18,11111222 
TABS,ioos:station:wmo:42043:1,2003-07-26T23:39:00Z,28.9818,-94.9186,1019.06,11111222 
TABS,ioos:station:wmo:42043:1,2003-07-27T00:09:00Z,28.9818,-94.9186,1018.99,11111222 
TABS,ioos:station:wmo:42043:1,2003-07-27T00:39:00Z,28.9818,-94.9186,1019.18,11111222 
TABS,ioos:station:wmo:42043:1,2003-07-27T01:09:00Z,28.9818,-94.9186,1019.31,11111222 
TABS,ioos:station:wmo:42043:1,2003-07-27T01:39:00Z,28.9818,-94.9186,1019.31,11111222 
TABS,ioos:station:wmo:42043:1,2003-07-27T02:09:00Z,28.9818,-94.9186,1019.63,11111222 
TABS,ioos:station:wmo:42043:1,2003-07-27T02:39:00Z,28.9818,-94.9186,1019.95,11111222 
TABS,ioos:station:wmo:42043:1,2003-07-27T03:09:00Z,28.9818,-94.9186,1020.07,11111222 
TABS,ioos:station:wmo:42043:1,2003-07-27T03:39:00Z,28.9818,-94.9186,1020.14,11111222 
TABS,ioos:station:wmo:42043:1,2003-07-27T04:09:00Z,28.9818,-94.9186,1019.88,11111222 
TABS,ioos:station:wmo:42043:1,2003-07-27T04:39:00Z,28.9818,-94.9186,1020.07,11111222 
TABS,ioos:station:wmo:42043:1,2003-07-27T05:09:00Z,28.9818,-94.9186,1020.26,11111222 
TABS,ioos:station:wmo:42043:1,2003-07-27T05:39:00Z,28.9818,-94.9186,1020.33,11111222 
TABS,ioos:station:wmo:42043:1,2003-07-27T06:09:00Z,28.9818,-94.9186,1020.33,11111222 
TABS,ioos:station:wmo:42043:1,2003-07-27T06:39:00Z,28.9818,-94.9186,1020.14,11111222 
TABS,ioos:station:wmo:42043:1,2003-07-27T07:09:00Z,28.9818,-94.9186,1020.01,11111222 
TABS,ioos:station:wmo:42043:1,2003-07-27T07:39:00Z,28.9818,-94.9186,1019.88,11111222 